     2              OBSERVATION DATA    GPS                 RINEX VERSION / TYPE
teqc 2000Feb29 Duncan Agnew 20000426 17:42:53UTC            PGM / RUN BY / DATE
                                                            COMMENT
L2: 1 -> 1; 150 -> 5; 250 -> 9                              COMMENT
L2: 1 -> 1; 150 -> 5; 250 -> 9                              COMMENT
L2: 1 -> 1; 150 -> 5; 250 -> 9                              COMMENT
L2: 1 -> 1; 150 -> 5; 250 -> 9                              COMMENT
L2: 1 -> 1; 150 -> 5; 250 -> 9                              COMMENT
Original Marker Name: SALY                                  COMMENT
Campaign Name: Hector Postseismic                           COMMENT
4-Character Station Name: SALY                              COMMENT
6-Character Antenna Code: DMRCHT                            COMMENT
Vertical Measurement Point: BCR                             COMMENT
Vertical Offset to Rinex Ref. Point: 0.0348                 COMMENT
Radial Measurement Point: ECF                               COMMENT
Radial Offset to Rinex Ref. Point: 0.1897                   COMMENT
Antenna Height from Field Measurement: 0.8180 m             COMMENT
Additional Antenna Identification Info.:                    COMMENT
Turborogue and Ashtech Choke Ring                           COMMENT
mark tipped to the SE130 deg; center mark                   COMMENT
damaged                                                     COMMENT
Original XYZ: -2338491.2814 -4726217.4187 3577873.2186      COMMENT
New XYZ position is based on association with SCEC monument COMMENT
E1F2H8I9+0011. Position of that monument is believed to be  COMMENT
valid to within 1 m horizontally; vertical accuracy         COMMENT
should be no worse than 3-times this value.                 COMMENT
                                                            COMMENT
Revised Rinex header created by UCSD GPS archive for        COMMENT
GSAC on 31-Jul-2000 (2000:213) 18:11:16 GMT                 COMMENT
For assistance contact dagnew@ucsd.edu                      COMMENT
or anderson@python.ucsd.edu                                 COMMENT
                                                            COMMENT
SALLY II                                                    MARKER NAME
SIO SCRIPPS INSTITUTION OF OCEANOGRAPHY                     OBSERVER / AGENCY
317 ASHTECH Z-XII3 CC00                                     REC # / TYPE / VERS
408 DORNE-MARGOL. TYPE T                                    ANT # / TYPE
 -2326429.0452 -4724739.6910  3587430.6861                  APPROX POSITION XYZ
        0.7609        0.0000        0.0000                  ANTENNA: DELTA H/E/N
     1     1     0                                          WAVELENGTH FACT L1/2
     7    C1    L1    L2    P1    P2    S1    S2            # / TYPES OF OBSERV
     0                                                      INTERVAL
  2000     4    18    23    46   30.000000                  TIME OF FIRST OBS
  2000     4    18    23    59   30.000000                  TIME OF LAST OBS
                                                            END OF HEADER
 00  4 18 23 46 30.0000000  0  5G21G17G26G 6G23
                   -310419.21749   -223190.98443
       210.000          74.000
                    -83433.00149    -60238.05843
       241.000          74.000
  21690630.300      -59066.83049    -42417.60846  21690630.899    21690643.995
       231.000         185.000
  20620686.411      102771.92449     74035.00847  20620686.426    20620698.529
       241.000         206.000
  21169022.117     -177850.91049   -127222.44247  21169022.271    21169035.610
       241.000         207.000
 00  4 18 23 47  0.0000000  0  6G22G21G17G26G 6G23
  23731190.509      -74449.82649    -53062.95145  23731189.819    23731211.291
       212.000         149.000
                   -421943.58149    -72155.55743
       209.000          74.000
                   -122225.40049    -26280.65547                  20841150.661
       241.000         199.000
  21684921.960      -89064.78149    -65792.56946  21684922.820    21684936.019
       231.000         186.000
  20624417.714      122379.49249     89313.59547  20624417.793    20624429.855
       241.000         206.000
  21156029.579     -246130.27349   -180427.01347  21156029.146    21156042.229
       241.000         207.000
 00  4 18 23 47 30.0000000  0  6G22G21G17G26G 6G23
  23730349.446      -78870.99049    -56508.00945  23730348.871    23730368.709
       212.000         153.000
                   -507075.72749   -138492.00244                  24269541.582
       208.000         128.000
  20838777.221     -134636.88849    -35951.89547  20838776.775    20838789.125
       241.000         208.000
  21684319.494      -92231.64649    -68260.19146  21684320.148    21684332.726
       231.000         187.000
  20633231.029      168693.81749    125402.64547  20633231.211    20633243.202
       241.000         206.000
  21148096.974     -287815.84249   -212909.14847  21148096.607    21148109.754
       241.000         208.000
 00  4 18 23 48  0.0000000  0  6G22G21G17G26G 6G23
  23729595.306      -82832.47949    -59594.85645  23729595.193    23729615.711
       214.000         153.000
  24253352.391     -592035.95949   -204694.12345  24253351.714    24253377.201
       209.000         144.000
  20836439.893     -146919.41949    -45522.65147  20836439.383    20836451.670
       241.000         209.000
  21683830.834      -94799.81649    -70261.30046  21683831.336    21683844.236
       231.000         187.000
  20642132.586      215471.98649    161853.13047  20642132.679    20642144.777
       241.000         206.000
  21140233.769     -329136.75349   -245107.13847  21140233.561    21140246.631
       241.000         208.000
 00  4 18 23 48 30.0000000  0  6G22G21G17G26G 6G23
  23728929.680      -86330.89349    -62320.87145  23728928.964    23728949.710
       213.000         154.000
  24237217.772     -676822.87749   -270761.21745  24237216.554    24237241.573
       211.000         146.000
  20834132.469     -159045.02749    -54971.13247  20834132.450    20834144.238
       241.000         210.000
  21683456.814      -96765.19849    -71792.69646  21683456.895    21683470.278
       231.000         186.000
  20651121.872      262710.79649    198662.55347  20651122.196    20651134.196
       241.000         206.000
  21132442.878     -370078.03149   -277009.31047  21132442.704    21132455.586
       240.000         208.000
 00  4 18 23 49  0.0000000  0  6G22G21G17G26G 6G23
  23728353.943      -89355.60649    -64677.77345  23728353.423    23728374.051
       212.000         154.000
  24221117.043     -761431.22649   -336689.20645  24221116.170    24221141.214
       210.000         148.000
  20831860.357     -170985.15349    -64275.07947  20831860.173    20831872.144
       242.000         210.000
  21683196.289      -98134.10149    -72859.30546  21683195.836    21683209.140
       230.000         186.000
  20660201.744      310425.54649    235842.83047  20660202.040    20660214.197
       242.000         206.000
  21124727.083     -410624.67249   -308603.97547  21124726.946    21124739.533
       241.000         208.000
 00  4 18 23 49 30.0000000  0  6G22G21G17G26G 6G23
  23727872.312      -91887.44249    -66650.61445  23727872.526    23727892.188
       215.000         154.000
  24205056.199     -845829.94249   -402453.85145  24205054.519    24205079.388
       212.000         149.000
  20829626.310     -182724.91549    -73422.90747  20829626.060    20829638.020
       241.000         210.000
  21683054.396      -98879.45949    -73440.04546  21683054.574    21683067.253
       230.000         186.000
  20669377.442      358644.05549    273415.65647  20669377.758    20669389.750
       241.000         206.000
  21117093.354     -450739.86749   -339862.44847  21117093.151    21117105.747
       240.000         208.000
 00  4 18 23 50  0.0000000  0  6G22G21G17G26G 6G23
  23727488.140      -93906.77749    -68224.09045  23727487.472    23727508.794
       212.000         153.000
  24189033.189     -930029.76649   -468063.53645  24189032.561    24189056.803
       211.000         149.000
  20827432.577     -194253.19549    -82405.94047  20827432.239    20827444.278
       241.000         210.000
  21683033.613      -98988.40249    -73524.86346  21683034.098    21683046.524
       229.000         186.000
  20678651.200      407377.75049    311389.92847  20678651.567    20678663.653
       241.000         206.000
  21109541.292     -490425.89449   -370786.51047  21109541.019    21109553.871
       241.000         208.000
 00  4 18 23 50 30.0000000  0  6G22G21G17G26G 6G23
  23727205.249      -95393.88949    -69382.89745  23727204.948    23727225.015
       213.000         153.000
  24173047.178    -1014034.80449   -533521.45545  24173046.308    24173069.753
       208.000         148.000
  20825280.919     -205560.24649    -91216.59047  20825280.598    20825292.644
       241.000         210.000
  21683134.437      -98458.30849    -73111.73746  21683135.158    21683147.551
       230.000         186.000
  20688021.915      456621.03149    349761.27547  20688022.000    20688034.140
       241.000         206.000
  21102071.762     -529678.17649   -401372.58947  21102071.390    21102084.246
       241.000         208.000
 00  4 18 23 51  0.0000000  0  6G22G21G17G26G 6G23
  23727021.789      -96358.17349    -70134.25745  23727020.366    23727041.887
       211.000         153.000
  24157100.401    -1097833.94849   -598818.94245  24157098.968    24157123.306
       212.000         149.000
  20823167.951     -216663.91749    -99868.76447  20823167.631    20823179.668
       241.000         210.000
  21683358.096      -97282.79749    -72195.68246  21683358.323    21683371.102
       229.000         186.000
  20697489.927      506375.62449    388531.04747  20697490.256    20697502.201
       241.000         206.000
  21094687.284     -568483.62349   -431610.48547  21094686.962    21094699.687
       241.000         208.000
 00  4 18 23 51 30.0000000  0  6G22G21G17G26G 6G23
  23726936.921      -96804.59949    -70482.14045  23726936.933    23726955.876
       213.000         153.000
  24141193.976    -1181420.87249   -663951.08845  24141191.921    24141217.424
       210.000         149.000
  20821090.765     -227579.47849   -108374.35947  20821090.489    20821102.616
       241.000         210.000
  21683705.861      -95455.10649    -70771.43646  21683706.352    21683719.432
       229.000         186.000
  20707053.378      556631.50249    427691.42347  20707053.695    20707065.834
       241.000         206.000
  21087384.457     -606859.88449   -461513.95747  21087384.078    21087396.794
       241.000         209.000
 00  4 18 23 52  0.0000000  0  6G22G21G17G26G 6G23
  23726950.559      -96732.46049    -70425.91445  23726949.615    23726970.402
       211.000         153.000
  24125323.650    -1264818.04849   -728935.37045  24125321.957    24125346.203
       211.000         150.000
  20819049.315     -238307.42849   -116733.76547  20819049.022    20819061.218
       241.000         210.000
  21684174.531      -92992.02149    -68852.08546  21684174.538    21684187.334
       229.000         186.000
  20716709.916      607376.75149    467233.13247  20716710.220    20716722.375
       240.000         205.000
  21080155.412     -644848.33349   -491115.23647  21080154.912    21080167.866
       241.000         209.000
 00  4 18 23 52 30.0000000  0  6G22G21G17G26G 6G23
  23727061.111      -96150.09449    -69972.13245  23727061.347    23727081.392
       215.000         153.000
  24109487.813    -1348034.09949   -793778.52845  24109487.039    24109511.151
       210.000         150.000
  20817042.280     -248854.33949   -124952.10447  20817042.092    20817054.050
       241.000         210.000
  21684761.806      -89905.65549    -66447.05746  21684762.701    21684775.255
       230.000         186.000
  20726457.244      658599.13049    507146.62847  20726457.522    20726469.649
       239.000         205.000
  21072996.310     -682469.32949   -520430.18947  21072996.048    21073008.648
       241.000         209.000
 00  4 18 23 53  0.0000000  0  6G22G21G17G26G 6G23
  23727266.710      -95070.62749    -69131.02645  23727265.326    23727285.828
       210.000         153.000
  24093685.844    -1431072.15549   -858482.99645  24093684.170    24093707.506
       210.000         150.000
  20815067.746     -259230.44949   -133037.35147  20815067.449    20815079.564
       241.000         210.000
  21685466.000      -86205.06349    -63563.41446  21685466.284    21685479.058
       230.000         186.000
  20736293.619      710289.31149    547424.63647  20736293.683    20736305.991
       239.000         205.000
  21065902.704     -719746.31549   -549477.08847  21065902.299    21065914.968
       241.000         209.000
 00  4 18 23 53 30.0000000  0  6G22G21G17G26G 6G23
  23727567.106      -93491.45649    -67900.51045  23727566.587    23727587.071
       212.000         153.000
  24077914.437    -1513949.41249   -923062.18245  24077913.228    24077937.581
       212.000         150.000
  20813124.909     -269440.14149   -140992.91847  20813124.644    20813136.372
       241.000         210.000
  21686284.319      -81904.88249    -60212.56346  21686284.717    21686297.724
       230.000         186.000
  20746215.517      762428.99949    588052.91247  20746215.794    20746227.793
       240.000         205.000
  21058870.879     -756698.36749   -578270.78747  21058870.487    21058883.256
       242.000         209.000
 00  4 18 23 54  0.0000000  0  6G22G21G17G26G 6G23
  23727964.083      -91406.90949    -66276.22945  23727964.052    23727982.683
       213.000         154.000
  24062173.086    -1596668.95049   -987518.47245  24062171.785    24062195.329
       211.000         150.000
  20811213.982     -279482.08749   -148817.76947  20811213.587    20811225.700
       241.000         210.000
  21687212.513      -77027.08349    -56411.62946  21687212.995    21687225.658
       230.000         186.000
  20756220.717      815006.29549    629022.17347  20756221.397    20756233.552
       239.000         205.000
  21051905.015     -793304.00249   -606794.56147  21051904.540    21051917.332
       242.000         209.000
 00  4 18 23 54 30.0000000  0  6G22G21G17G26G 6G23
  23728455.894      -88822.64649    -64262.55145  23728455.502    23728475.392
       210.000         155.000
  24046466.788    -1679203.96749  -1051830.98845  24046465.748    24046488.692
       210.000         151.000
  20809335.336     -289354.37449   -156510.42247  20809335.117    20809347.052
       241.000         210.000
  21688251.832      -71565.49949    -52155.79846  21688252.255    21688265.019
       230.000         186.000
  20766308.060      868015.40749    670327.91347  20766308.514    20766320.801
       239.000         205.000
  21045014.519     -829513.34049   -635009.53047  21045014.200    21045026.935
       241.000         210.000
 00  4 18 23 55  0.0000000  0  6G22G21G17G26G 6G23
  23729044.188      -85730.06949    -61852.76045  23729044.324    23729064.437
       213.000         155.000
  24030799.651    -1761533.58549  -1115983.45145  24030798.265    24030822.450
       212.000         151.000
  20807491.167     -299045.52349   -164061.92847  20807490.794    20807502.754
       241.000         210.000
  21689405.620      -65502.22549    -47431.11946  21689406.157    21689418.536
       230.000         186.000
  20776478.313      921460.03449    711973.02847  20776478.793    20776490.942
       239.000         204.000
  21038206.903     -865287.37749   -662885.30747  21038206.483    21038219.076
       242.000         210.000
 00  4 18 23 55 30.0000000  0  6G22G21G17G26G 6G23
  23729731.585      -82118.04249    -59038.21145  23729731.958    23729751.812
       214.000         154.000
  24015172.757    -1843651.53649  -1179970.99945  24015171.553    24015194.756
       212.000         151.000
  20805683.299     -308545.81849   -171464.72047  20805682.985    20805694.738
       241.000         210.000
  21690676.387      -58824.18949    -42227.40946  21690676.527    21690689.225
       230.000         186.000
  20786734.579      975356.82749    753970.47147  20786734.993    20786747.176
       239.000         204.000
  21031487.141     -900599.57049   -690401.20547  21031486.965    21031499.506
       242.000         210.000
 00  4 18 23 56  0.0000000  0  6G22G21G17G26G 6G23
  23730516.727      -77992.26349    -55823.33845  23730516.455    23730536.286
       214.000         155.000
  23999588.647    -1925544.72149  -1243783.39845  23999586.782    23999610.793
       213.000         152.000
  20803915.034     -317837.98549   -178705.33247  20803914.779    20803926.669
       240.000         210.000
  21692068.619      -51507.69149    -36526.19446  21692068.883    21692082.078
       230.000         186.000
  20797081.902     1029732.11749    796340.76747  20797082.329    20797094.523
       239.000         204.000
  21024858.469     -935433.25349   -717544.24147  21024858.254    21024870.794
       242.000         210.000
 00  4 18 23 56 30.0000000  0  6G22G21G17G26G 6G23
  23731397.904      -73362.76449    -52215.97645  23731397.755    23731417.781
       213.000         155.000
  23984046.048    -2007219.84349  -1307425.88945  23984044.761    23984067.241
       212.000         152.000
  20802186.269     -326922.74849   -185784.32647  20802185.906    20802197.705
       241.000         210.000
  21693589.748      -43514.31749    -30297.54546  21693590.390    21693602.844
       231.000         187.000
  20807523.160     1084600.84249    839095.55947  20807523.531    20807535.611
       238.000         204.000
  21018317.166     -969807.74649   -744329.46647  21018316.962    21018329.256
       242.000         210.000
 00  4 18 23 57  0.0000000  0  6G22G21G17G26G 6G23
  23732373.261      -68236.58949    -48221.56445  23732372.410    23732393.991
       214.000         155.000
  23968541.291    -2088696.22749  -1370913.53545  23968540.275    23968562.895
       212.000         153.000
  20800495.810     -335806.00049   -192706.29747  20800495.257    20800507.221
       241.000         210.000
  21695239.292      -34845.74449    -23542.76346  21695239.668    21695252.303
       230.000         186.000
  20818059.887     1139971.47649    882241.45047  20818060.307    20818072.748
       239.000         204.000
  21011855.812    -1003762.08249   -770787.29547  21011855.535    21011867.938
       242.000         210.000
 00  4 18 23 57 30.0000000  0  6G22G21G17G26G 6G23
  23733441.852      -62620.93349    -43845.77145  23733442.430    23733461.068
       215.000         155.000
  23953072.464    -2169983.52949  -1434253.84245  23953070.804    23953093.796
       213.000         153.000
  20798841.759     -344497.93549   -199479.19347  20798841.512    20798853.263
       241.000         210.000
  21697013.704      -25521.01349    -16276.70046  21697013.870    21697026.420
       230.000         186.000
  20828693.101     1195849.18349    925782.46847  20828693.226    20828705.672
       238.000         204.000
  21005468.876    -1037325.36649   -796940.41147  21005468.577    21005480.984
       242.000         210.000
 00  4 18 23 58  0.0000000  0  6G22G21G17G26G 6G23
  23734603.151      -56519.71549    -39091.62045  23734602.896    23734624.056
       215.000         156.000
  23937637.463    -2251093.30549  -1497455.82245  23937635.780    23937658.899
       212.000         153.000
  20797223.599     -353001.38249   -206105.21947  20797223.232    20797235.297
       241.000         210.000
  21698910.783      -15551.83749     -8508.47446  21698910.927    21698923.168
       230.000         186.000
  20839421.072     1252224.68549    969711.37647  20839421.329    20839433.547
       239.000         204.000
  20999153.788    -1070511.23049   -822799.43447  20999153.299    20999165.858
       242.000         210.000
 00  4 18 23 58 30.0000000  0  6G22G21G17G26G 6G23
  23735857.430      -49928.18949    -33955.39245  23735856.898    23735876.937
       214.000         156.000
  23922237.458    -2332019.00149  -1560514.37845  23922236.280    23922259.227
       214.000         153.000
  20795638.984     -361328.45649   -212593.81147  20795638.619    20795650.501
       241.000         210.000
  21700926.499       -4958.80449      -254.12246  21700926.581    21700939.091
       230.000         186.000
  20850242.645     1309092.24649   1014023.70647  20850243.057    20850255.315
       238.000         204.000
  20992909.669    -1103324.11149   -848367.82147  20992909.251    20992921.747
       242.000         210.000
 00  4 18 23 59  0.0000000  0  6G22G21G17G26G 6G23
  23737205.418      -42843.97549    -28435.25845  23737206.444    23737226.117
       216.000         155.000
  23906876.784    -2412738.10949  -1623411.95045  23906875.065    23906898.478
       214.000         154.000
  20794086.828     -369484.99649   -218949.52547  20794086.593    20794098.376
       241.000         210.000
  21703056.731        6235.92549      8469.07946  21703056.936    21703069.652
       230.000         186.000
  20861157.691     1366450.78049   1058718.61047  20861158.081    20861170.106
       238.000         204.000
  20986738.918    -1135751.44149   -873635.78347  20986738.563    20986751.014
       242.000         211.000
